Dewpoint
28 24 19 20 20 25 27 27 28 31 39 45 46 47 59 59 57 56 57 57 57 59 61 63 64 65 66 66 65 65 64 65 67 67 67 66 66 67 67 67 69 69 70 71
25 23 22 20 19 23 25 23 26 28 33 44 44 46 57 59 59 57 57 57 57 59 60 62 62 64 64 65 64 64 64 64 66 67 67 67 66 67 67 67 69 69 70 71
24 23 22 18 17 16 21 23 22 26 31 46 45 46 52 59 60 60 59 59 58 59 60 61 62 63 63 64 64 63 63 64 66 67 67 67 66 66 66 66 66 68 69 70
27 28 24 19 17 18 15 19 23 23 23 28 42 35 48 56 59 59 59 60 60 59 60 61 61 62 63 63 64 64 63 63 65 66 66 66 65 64 65 65 66 67 69 69
29 28 28 20 18 19 15 19 21 23 23 26 31 39 38 53 56 58 59 60 60 61 60 60 61 62 62 62 63 64 64 64 65 66 66 66 65 64 64 65 65 65 69 70
22 21 25 27 26 21 22 24 24 26 25 23 24 31 32 47 51 55 58 59 60 61 61 61 61 61 62 62 63 64 64 64 64 65 66 65 65 64 64 64 64 64 66 69
30 27 23 23 24 25 24 21 23 22 23 21 25 24 27 35 48 51 54 57 58 61 61 61 60 61 61 62 62 63 64 63 64 65 66 65 65 65 64 64 64 63 64 66
28 19 28 30 23 26 25 25 20 19 21 19 25 25 27 30 41 48 51 53 55 58 60 61 61 61 61 61 62 63 64 64 64 65 66 66 65 65 65 65 65 64 64 65
30 28 32 30 32 30 28 27 28 24 22 21 21 25 26 29 30 36 45 50 52 55 57 59 60 61 62 61 62 63 63 64 65 65 66 66 66 65 66 66 66 66 65 65
33 19 30 32 32 30 27 30 28 26 23 21 21 22 25 26 28 33 42 50 51 53 55 56 58 59 61 62 62 62 63 64 65 65 66 66 66 67 66 66 65 65 65 66
33 30 23 30 29 25 24 24 28 30 27 23 19 18 23 26 28 28 37 46 50 51 53 54 55 57 59 62 62 62 63 63 64 65 66 66 66 67 67 66 66 66 66 65
36 31 27 29 30 33 34 30 26 28 27 26 24 24 22 25 27 28 30 42 50 51 52 53 54 53 57 61 62 62 62 63 64 65 66 66 67 67 67 67 66 66 66 66
35 33 25 22 26 30 30 28 28 26 26 27 25 25 25 24 21 20 22 37 48 51 52 53 54 53 54 58 61 62 62 62 64 65 66 66 66 67 67 67 67 67 67 67
36 31 26 23 24 28 26 28 29 27 24 25 26 27 23 25 20 18 21 23 32 49 51 52 53 53 54 57 60 61 62 62 63 64 66 66 66 67 67 67 68 67 67 67
34 28 28 29 30 29 29 28 28 27 26 24 26 23 23 22 22 22 22 30 32 28 50 52 52 53 55 56 60 61 62 63 63 63 65 66 66 67 67 68 69 70 69 67
34 24 30 28 30 29 26 28 28 27 27 27 27 21 33 29 28 37 52 53 49 38 33 50 51 53 54 56 60 61 63 63 64 63 64 66 67 67 67 67 67 67 69 70
32 29 29 24 26 25 24 26 27 32 32 32 24 27 38 49 50 50 52 55 56 54 37 38 50 53 54 56 59 61 63 64 64 64 65 65 67 68 68 69 69 68 67 68
31 30 30 25 24 23 33 36 33 32 33 35 35 42 48 50 51 48 46 51 56 59 52 47 51 53 54 56 57 60 63 64 65 65 66 66 67 67 68 69 69 70 70 69
32 32 28 23 26 31 34 35 35 35 31 34 35 37 42 49 51 51 43 44 50 59 63 53 54 55 55 56 57 59 62 63 65 65 66 67 68 68 68 69 69 70 71 71
34 32 29 29 25 30 36 35 37 38 30 33 34 35 38 49 45 39 41 43 47 56 65 60 56 55 55 57 57 59 60 62 64 65 66 67 68 69 69 69 69 70 71 71
28 29 26 27 28 35 36 38 37 31 30 35 35 35 36 38 40 40 40 41 45 52 55 66 67 64 59 58 58 58 60 61 63 65 67 68 69 69 70 71 71 71 71 71
29 28 29 30 29 30 38 38 32 34 36 36 38 38 36 39 40 39 39 40 45 47 52 56 62 66 66 60 59 59 59 61 61 64 66 67 68 69 70 70 71 72 71 71
29 31 30 31 30 37 39 37 38 40 38 38 40 40 38 36 38 40 39 40 46 49 51 54 55 60 63 69 68 66 68 64 63 62 63 66 68 69 70 70 71 71 72 71
34 36 32 33 36 39 39 39 40 42 42 42 42 41 40 36 38 39 41 40 43 45 47 52 53 53 54 58 63 67 68 68 69 68 66 66 66 66 68 70 71 71 71 71
35 36 33 34 37 39 40 41 41 42 44 44 43 42 41 39 39 39 41 41 41 43 44 46 48 47 49 52 53 57 63 68 67 67 68 70 70 69 69 69 69 70 71 70
39 37 34 33 39 40 40 42 42 41 43 45 45 43 43 42 39 41 41 43 42 42 44 43 44 44 45 46 48 52 55 60 65 67 67 69 70 71 70 69 67 59 62 63
Wind_Speed
11 12 34 34 23 4 10 6 15 5 8 11 22 20 21 23 20 23 25 26 28 28 26 22 22 23 21 20 20 21 21 19 17 13 12 11 13 7 7 10 11 12 11 11
9 25 23 15 11 12 16 7 9 5 5 14 13 25 16 27 32 30 27 28 28 25 26 26 24 26 26 25 23 22 23 20 19 16 11 6 10 6 6 8 10 12 13 12
15 6 18 19 17 20 19 27 14 6 2 14 6 11 10 18 13 19 21 25 24 29 30 28 28 27 26 27 27 25 24 22 20 18 12 6 5 1 4 4 6 12 12 13
16 17 14 22 25 19 25 25 19 14 6 8 15 10 13 16 26 26 26 28 26 29 28 26 28 28 29 29 26 25 24 23 20 19 18 19 17 16 12 11 9 11 13 15
10 13 19 20 24 22 19 12 23 21 14 12 10 9 12 20 21 29 31 31 29 28 30 32 33 30 27 24 26 25 24 23 21 21 20 20 18 12 8 9 13 10 11 13
12 5 6 24 20 24 8 4 12 7 11 25 22 15 13 15 29 28 30 29 30 31 32 31 30 28 28 26 24 24 24 24 23 24 24 23 22 16 14 13 15 15 12 11
9 8 3 13 6 24 23 19 7 16 18 27 20 21 23 11 22 28 32 34 32 31 29 32 31 31 30 30 27 25 26 27 24 25 24 23 23 22 23 20 19 19 16 11
6 7 1 4 14 15 25 21 15 16 10 24 10 15 14 31 21 22 27 27 24 27 28 31 33 32 31 31 31 28 29 29 26 26 26 24 21 20 20 20 18 18 19 16
4 7 10 7 6 2 14 34 19 3 1 10 20 7 9 14 31 30 25 19 27 32 33 36 32 33 32 32 33 31 30 29 29 29 26 24 23 23 21 19 18 16 16 15
4 8 7 12 9 14 16 5 21 15 17 18 6 19 20 25 23 26 18 22 26 31 35 28 31 35 34 34 33 31 32 33 30 28 25 25 24 23 20 17 21 17 16 16
4 4 9 10 6 12 12 21 13 14 18 17 11 12 11 23 29 30 25 26 26 29 33 34 33 33 34 31 33 34 34 32 29 28 27 26 24 23 20 21 20 19 17 18
2 2 8 12 22 15 8 7 15 20 20 18 4 19 9 20 22 25 29 28 27 30 33 33 31 30 32 35 34 36 34 32 31 29 28 27 24 23 24 22 20 19 20 18
7 2 6 10 9 3 3 3 6 11 8 29 28 12 15 16 15 17 23 19 23 27 25 27 22 29 33 34 34 35 33 32 31 27 28 26 25 24 26 25 20 19 19 20
5 2 9 18 2 8 10 18 15 5 14 16 27 20 18 24 17 16 14 14 16 22 27 28 25 30 32 32 33 33 32 31 29 28 28 28 27 27 27 24 23 20 20 21
5 6 14 27 30 20 19 24 25 12 15 10 14 21 20 23 25 23 9 10 12 18 21 28 30 32 31 28 30 29 30 30 30 29 28 29 26 24 23 23 24 21 21 24
8 6 11 22 19 23 23 24 22 24 27 19 25 21 5 8 10 14 11 10 15 20 27 31 35 33 33 33 34 33 31 31 29 29 30 27 26 25 26 24 23 22 22 23
11 6 5 9 4 10 11 26 17 7 13 5 17 6 14 1 5 10 13 15 17 19 19 29 34 35 36 35 32 36 32 29 30 30 28 27 26 26 26 23 21 23 24 21
10 7 6 8 5 7 6 10 21 23 19 21 15 19 5 11 9 12 17 17 19 20 18 24 28 32 34 33 30 25 29 30 30 28 25 24 25 24 22 21 22 21 20 23
15 6 7 5 3 3 7 8 6 8 13 22 18 20 12 7 5 12 25 23 18 19 16 16 21 19 22 26 27 27 27 27 26 26 26 26 26 25 23 24 23 22 21 21
13 9 13 3 4 10 8 17 6 6 12 22 20 20 18 6 13 13 24 20 21 18 16 7 20 21 22 22 26 27 27 27 29 30 28 23 24 25 25 26 25 22 22 22
11 9 23 15 6 2 19 20 3 6 1 17 18 17 18 19 6 7 15 22 19 20 25 20 19 16 16 24 27 26 24 29 22 19 21 21 22 24 23 20 20 20 21 20
7 6 5 4 10 3 25 7 8 5 3 11 15 15 15 15 14 15 20 25 30 29 29 26 24 21 15 10 20 20 21 15 21 23 24 24 24 23 22 24 22 22 22 21
5 4 1 1 4 12 14 5 9 8 6 7 12 14 14 16 19 17 20 23 25 27 27 26 24 26 26 24 18 16 4 10 15 20 21 20 18 21 21 22 20 19 20 21
9 8 1 5 6 12 2 11 10 9 9 9 10 11 11 14 17 18 19 21 22 23 26 24 29 30 28 24 24 18 15 14 14 11 12 12 15 17 17 16 17 18 19 19
4 7 6 4 10 7 9 15 11 14 13 11 8 8 13 13 16 14 15 18 18 20 21 22 24 24 24 21 22 21 19 14 16 13 10 9 8 12 16 16 15 17 16 17
15 11 10 4 14 9 13 18 21 15 11 12 14 14 12 13 14 14 12 10 12 16 17 20 21 23 22 21 21 20 19 17 13 13 10 7 4 3 7 11 13 2 5 6
Wind_Direction
178 188 207 210 209 154 175 203 224 219 198 172 209 227 182 178 182 185 185 190 196 198 191 191 188 190 185 191 190 186 189 192 179 183 192 212 221 218 211 209 206 205 207 213
162 219 221 209 210 209 231 235 229 273 227 203 226 235 193 180 197 194 187 192 200 193 196 195 192 190 191 190 193 191 192 190 189 188 191 186 198 213 198 192 194 196 197 203
192 226 188 192 201 210 223 230 228 219 337 212 200 257 203 202 196 199 204 209 197 197 193 196 195 194 194 194 193 194 195 191 190 186 164 133 137 114 191 185 183 203 203 207
231 234 206 200 207 189 222 222 237 251 278 218 193 251 226 196 199 202 205 207 201 200 200 197 198 199 199 200 195 194 194 194 190 182 182 192 199 202 202 196 192 191 200 208
215 209 214 209 213 188 232 191 214 233 233 264 232 226 246 195 205 210 209 209 207 203 200 198 202 202 202 196 200 198 193 196 191 188 190 192 206 205 179 180 200 201 205 208
243 250 220 224 218 205 193 246 193 193 201 236 230 225 244 206 212 217 214 212 206 203 204 202 202 199 202 203 199 197 192 197 193 190 197 198 203 199 193 195 202 211 215 210
330 248 220 247 255 201 193 186 217 216 212 235 220 226 232 223 221 214 208 211 208 203 204 202 197 199 201 200 199 197 196 196 193 191 196 201 202 196 204 204 206 210 215 213
351 230 73 342 214 212 202 191 187 210 206 231 200 227 228 227 240 225 217 211 202 201 206 203 202 200 199 202 199 195 197 201 191 193 196 198 199 199 205 205 207 210 210 213
13 271 325 296 323 335 215 211 209 219 208 227 210 222 264 235 221 232 232 193 198 201 203 205 199 202 200 199 200 196 198 204 192 195 197 198 198 200 205 203 204 209 205 210
161 294 302 313 319 235 219 237 202 215 226 235 231 202 229 209 224 232 229 205 207 203 208 206 201 199 200 200 198 196 201 198 196 195 199 198 198 200 201 196 208 207 208 207
153 191 290 334 236 244 210 231 249 210 224 223 232 234 211 200 207 225 225 220 207 204 202 204 201 197 197 195 196 198 198 199 199 195 197 199 199 199 196 201 206 206 205 207
155 187 265 251 266 285 308 269 236 227 217 229 234 245 219 210 213 221 222 215 210 205 204 204 200 194 191 193 194 196 197 197 195 195 193 198 199 196 197 204 204 201 204 204
172 100 307 287 264 112 224 300 324 278 288 221 227 229 252 250 262 251 245 227 210 209 205 207 199 194 197 194 191 193 193 195 194 191 194 196 198 196 199 203 200 199 197 204
115 156 233 254 245 5 299 297 318 350 252 251 231 236 210 260 258 253 251 241 218 206 201 199 196 197 195 193 188 188 191 192 190 189 193 195 195 198 200 200 199 193 194 205
126 247 259 263 269 277 271 276 287 278 259 257 246 234 223 218 239 257 235 267 266 239 202 198 199 195 195 187 185 185 189 189 187 189 193 198 197 197 197 196 202 199 194 208
180 249 275 277 259 253 268 265 264 262 256 249 260 266 348 283 270 289 341 318 280 249 227 207 203 191 187 187 182 182 185 186 185 189 194 194 193 194 197 197 197 197 200 208
176 208 258 262 277 316 263 242 230 100 33 288 233 246 312 358 58 17 355 345 314 303 243 212 198 187 186 185 178 183 180 177 184 189 193 193 193 197 200 199 194 200 204 205
187 196 251 282 313 190 166 132 93 95 47 22 10 360 315 140 115 39 15 355 343 327 274 201 193 187 189 181 180 165 171 177 185 189 189 191 192 195 195 195 198 203 204 206
190 165 267 250 223 260 164 28 41 63 44 16 359 357 344 265 267 18 360 0 343 326 305 198 184 186 174 170 167 162 168 174 178 186 188 189 189 191 191 198 199 203 205 209
152 184 243 265 253 192 48 343 335 115 42 356 357 360 358 94 69 354 345 356 356 354 11 89 149 150 155 152 157 158 167 173 184 189 191 189 187 190 195 200 200 204 207 214
171 197 224 236 263 289 343 323 214 86 52 335 342 351 4 66 76 339 353 17 19 23 27 39 69 111 148 155 155 164 169 187 186 175 178 183 189 193 197 197 199 201 206 211
164 192 170 203 221 240 349 343 79 98 0 326 331 344 7 15 15 17 27 24 24 24 29 33 52 57 72 112 150 160 178 181 175 176 183 188 191 193 196 197 198 199 202 208
55 31 8 247 332 321 314 358 67 22 296 336 327 337 2 15 15 7 25 28 30 31 30 32 45 54 50 59 84 96 68 149 168 179 189 195 194 196 198 198 200 199 201 209
3 23 30 343 349 355 360 83 17 349 318 325 328 328 4 14 12 14 21 31 33 32 32 31 39 43 41 38 47 47 50 72 108 138 173 189 190 197 199 196 199 202 206 211
346 310 327 256 0 18 217 343 344 331 310 313 330 357 12 6 13 14 21 26 32 36 34 35 37 38 33 30 36 32 31 51 76 87 104 123 158 196 206 199 199 207 213 213
355 4 7 344 330 301 283 302 312 311 300 306 333 348 6 6 350 357 17 20 27 30 32 34 31 30 21 20 24 23 24 31 44 56 59 74 88 178 204 200 211 194 232 249